Probability
0 1 3 2 1 0 0 0 0 0 0 0 0 0 0 0 0 0 0 0 0 0 0 0 0 0 0 0 0 0 0 0 0 0 0 0 0 0 0 0 0 0 0
0 1 3 3 1 0 0 0 0 0 0 0 0 0 0 0 0 0 0 0 0 0 0 0 0 0 0 0 0 0 0 0 0 0 0 0 0 0 0 0 0 0 0
0 0 2 4 2 0 0 0 0 0 0 0 0 0 0 0 0 0 0 0 0 0 0 0 0 0 0 0 0 0 0 0 0 0 0 0 0 0 0 0 0 0 0
0 0 2 4 2 0 0 0 0 0 0 0 0 0 0 0 0 0 0 0 0 0 0 0 0 0 0 0 0 0 0 0 0 0 0 0 0 0 0 0 0 0 0
0 0 2 3 2 0 0 0 0 0 0 0 0 0 0 0 0 0 0 0 0 0 0 0 0 0 0 0 0 0 0 0 0 0 0 0 0 0 0 0 0 0 0
0 0 1 2 1 0 0 0 0 0 0 0 0 0 0 0 0 0 0 0 0 0 0 0 0 0 0 0 0 0 0 0 0 0 0 0 0 0 0 0 0 0 0
0 0 1 1 1 0 0 0 0 0 0 0 0 0 0 0 0 0 0 0 0 0 0 0 0 0 0 0 0 0 0 0 0 0 0 0 0 0 0 0 0 0 0
0 0 0 1 1 0 0 0 0 0 0 0 0 0 0 0 0 0 0 0 0 0 0 0 0 0 0 0 0 0 0 0 0 0 0 0 0 0 0 0 0 0 0
0 0 0 0 0 0 0 0 0 0 0 0 0 0 0 0 0 0 0 0 0 0 0 0 0 0 0 0 0 0 0 0 0 0 0 0 0 0 0 0 0 0 0
0 0 0 0 0 0 0 0 0 0 0 0 0 0 0 0 0 0 0 0 0 0 0 0 0 0 0 0 0 0 0 0 0 0 0 0 0 0 0 0 0 0 0
0 0 0 0 0 0 0 0 0 0 0 0 0 0 0 0 0 0 0 0 0 0 0 0 0 0 0 0 0 0 0 0 0 0 0 0 0 0 0 0 0 0 0
0 0 0 0 0 0 0 0 0 0 0 0 0 0 0 0 0 0 0 0 0 0 0 0 0 0 0 0 0 0 0 0 0 0 0 0 0 0 0 0 0 0 0
0 0 0 0 0 0 0 0 0 0 0 0 0 0 0 0 0 0 0 0 0 0 0 0 0 0 0 0 0 0 0 0 0 0 0 0 0 0 0 0 0 0 0
0 0 0 0 0 0 0 0 0 0 0 0 0 0 0 0 0 0 0 0 0 0 0 0 0 0 0 0 0 0 0 0 0 0 0 0 0 0 0 0 0 0 0
0 0 0 0 0 0 0 0 0 0 0 0 0 0 0 0 0 0 0 0 0 0 0 0 0 0 0 0 0 0 0 0 0 0 0 0 0 0 0 0 0 0 0
0 0 0 0 0 0 0 0 0 0 0 0 0 0 0 0 0 0 0 0 0 0 0 0 0 0 0 0 0 0 0 0 0 0 0 0 0 0 0 0 0 0 0
0 0 0 0 0 0 0 0 0 0 0 0 0 0 0 0 0 0 0 0 0 0 0 0 0 0 0 0 0 0 0 0 0 0 0 0 0 0 0 0 0 0 0
0 0 0 0 0 0 0 0 0 0 0 0 0 0 0 0 0 0 0 0 0 0 0 0 0 0 0 0 0 0 0 0 0 0 0 0 0 0 0 0 0 0 0
0 0 0 0 0 0 0 0 0 0 0 0 0 0 0 0 0 0 0 0 0 0 0 0 0 0 0 0 0 0 0 0 0 0 0 0 0 0 0 0 0 0 0
0 0 0 0 0 0 0 0 0 0 0 0 0 0 0 0 0 0 0 0 0 0 0 0 0 0 0 0 0 0 0 0 0 0 0 0 0 0 0 0 0 0 0
0 0 0 0 0 0 0 0 0 0 0 0 0 0 0 0 0 0 0 0 0 0 0 0 0 0 0 0 0 0 0 0 0 0 0 0 0 0 0 0 0 0 0
0 0 0 0 0 0 0 0 0 0 0 0 0 0 0 0 0 0 0 0 0 0 0 0 0 0 0 0 0 0 0 0 0 0 0 0 0 0 0 0 0 0 0
0 0 0 0 0 0 0 0 0 0 0 0 0 0 0 0 0 0 0 0 0 0 0 0 0 0 0 0 0 0 0 0 0 0 0 0 0 0 0 0 0 0 0
0 0 0 0 0 0 0 0 0 0 0 0 0 0 0 0 0 0 0 0 0 0 0 0 0 0 0 0 0 0 0 0 0 0 0 0 0 0 0 0 0 0 0
0 0 0 0 0 0 0 0 0 0 0 0 0 0 0 0 0 0 0 0 0 0 0 0 0 0 0 0 0 0 0 0 0 0 0 0 0 0 0 0 0 0 0
0 0 0 0 0 0 0 0 0 0 0 0 0 0 0 0 0 0 0 0 0 0 0 0 0 0 0 0 0 0 0 0 0 0 0 0 0 0 0 0 0 0 0
Wind_Speed
14 18 20 20 19 18 16 15 14 14 13 13 13 13 13 13 14 14 14 13 13 13 14 14 15 15 15 15 16 16 16 16 16 16 16 16 16 16 15 15 12 12 17
19 20 22 21 20 19 17 16 15 14 14 13 13 13 13 13 13 13 13 13 13 13 13 14 14 14 14 15 15 15 15 15 15 14 12 14 15 15 15 15 15 11 15
20 20 22 21 20 19 18 17 16 15 14 13 13 13 13 13 13 13 13 13 13 13 13 13 14 14 14 14 14 14 14 14 13 11 9 9 12 14 14 14 14 14 14
20 19 20 21 21 20 19 17 16 15 15 14 13 13 13 13 13 13 13 13 13 13 13 12 13 13 13 13 13 13 13 13 11 7 8 9 10 13 13 13 13 13 13
19 18 19 21 21 20 19 18 17 16 15 14 14 13 13 13 13 13 13 13 13 12 12 12 12 12 13 13 13 13 12 11 8 8 9 9 9 11 12 11 11 11 11
19 17 20 21 21 20 19 18 17 16 15 15 14 13 13 13 13 13 13 13 12 12 12 12 11 12 12 12 12 12 11 8 5 8 8 8 8 9 10 10 10 10 10
19 17 19 20 21 20 19 19 18 17 16 15 14 13 13 13 13 13 12 12 12 11 11 11 11 11 11 11 11 11 10 6 6 7 7 7 8 9 9 9 9 9 9
18 17 18 20 20 20 19 18 18 17 16 15 14 14 13 13 13 13 12 11 11 11 11 11 11 11 10 10 10 10 8 4 6 6 6 7 8 9 9 9 9 9 9
17 16 16 18 18 19 18 18 17 17 16 15 15 14 13 13 13 12 12 11 11 11 10 10 10 10 9 9 9 9 7 3 4 5 5 6 8 8 8 8 8 8 8
15 15 16 17 17 17 16 16 16 15 15 15 14 12 12 12 12 12 11 11 10 10 9 9 9 9 9 9 8 7 4 2 5 4 4 6 7 7 7 7 8 8 8
15 15 15 16 16 15 15 15 15 14 14 14 13 12 11 10 11 10 9 10 10 9 9 8 9 9 8 8 7 4 3 2 4 3 4 6 6 6 7 8 8 8 9
20 18 15 16 15 15 12 13 12 11 12 11 11 12 9 8 7 7 10 8 9 8 8 8 8 7 4 5 6 4 1 2 2 3 4 6 6 6 7 7 8 8 9
20 19 17 16 15 14 11 11 8 7 9 10 12 12 9 8 6 7 6 7 7 7 6 7 6 4 3 2 2 2 2 1 1 2 4 6 5 6 6 7 8 8 9
20 20 18 17 15 15 13 10 10 8 8 8 10 12 9 6 7 6 5 6 5 4 4 4 3 4 3 3 2 2 1 1 1 1 4 5 5 5 5 7 7 8 8
20 20 20 18 17 15 13 10 10 10 10 10 9 10 10 8 8 7 6 5 5 5 5 4 3 4 3 3 2 1 1 1 1 1 3 5 5 5 5 6 7 7 8
20 21 20 20 18 16 13 11 10 10 9 10 9 11 12 8 8 7 7 6 6 5 4 4 4 3 2 2 1 1 1 1 1 1 2 4 6 6 6 6 6 7 7
20 20 21 20 19 18 16 14 10 10 10 9 9 12 12 10 10 8 7 7 6 5 6 4 4 3 2 2 2 1 1 0 0 1 1 1 3 5 6 6 6 6 7
19 20 20 17 19 19 16 14 10 10 11 9 9 10 13 12 11 9 7 7 7 6 5 5 4 4 3 2 2 1 1 1 1 1 1 1 1 1 4 6 6 6 6
20 20 20 20 20 19 17 13 12 10 11 10 10 10 12 13 13 10 8 7 8 6 6 5 4 4 3 3 2 1 1 1 1 2 2 2 2 1 1 4 4 5 6
19 19 20 20 19 18 14 12 10 11 11 10 10 11 13 12 14 11 8 9 9 7 6 6 6 4 3 3 2 1 1 1 2 2 2 2 2 2 1 0 1 2 4
19 20 21 21 20 17 14 13 13 13 12 11 11 13 14 14 14 12 9 10 10 8 8 8 6 6 4 4 3 2 2 2 2 2 2 3 3 2 2 1 1 1 0
21 21 22 22 21 20 16 15 13 13 11 10 9 12 15 15 15 12 13 10 10 9 10 9 8 5 4 5 4 3 3 4 4 3 3 3 3 3 3 3 2 2 1
21 22 20 23 23 23 20 14 11 10 9 10 13 12 15 16 16 14 15 12 12 11 10 11 10 9 6 5 5 4 3 3 3 4 4 4 4 4 3 3 3 3 3
21 21 22 22 23 23 21 18 19 15 15 17 13 12 14 16 16 16 15 14 13 11 11 11 11 8 8 6 5 4 4 2 3 2 4 4 5 5 5 4 4 4 4
19 19 19 21 22 22 22 22 21 18 16 13 13 15 15 14 16 16 15 14 13 11 12 11 11 10 8 7 6 5 5 3 5 4 4 4 4 5 4 5 4 4 4
16 16 17 19 21 21 23 23 23 22 19 16 17 15 14 11 13 16 15 14 14 12 12 12 11 12 10 9 7 6 5 5 5 5 5 4 4 3 4 4 5 4 4
Wind_Direction
164 162 162 159 155 152 149 145 140 135 130 127 121 115 110 107 104 100 98 95 94 91 90 88 85 82 79 77 74 72 69 67 64 60 60 62 61 59 55 48 46 53 48
156 159 159 158 155 153 150 145 141 136 132 129 125 120 116 112 108 105 102 99 96 94 92 90 87 84 82 80 78 76 73 71 67 63 64 69 64 60 57 54 50 51 50
154 157 159 158 156 154 151 147 143 140 136 133 130 127 123 117 112 109 105 101 97 95 94 92 88 86 85 83 80 78 76 72 68 66 69 69 68 60 59 56 54 52 50
155 158 159 157 157 155 152 148 146 143 140 137 134 132 128 122 118 114 110 105 101 99 98 95 91 89 88 85 83 80 77 72 65 62 65 62 65 60 57 54 53 51 49
156 159 154 158 157 155 153 150 149 147 143 141 139 136 132 128 123 119 113 109 106 104 102 99 96 94 92 89 86 82 78 73 70 70 68 63 64 59 56 52 50 48 47
158 159 154 161 158 156 154 152 151 150 147 146 143 140 136 130 125 121 116 113 110 108 106 103 101 99 95 93 88 84 79 70 82 70 66 58 59 57 55 50 47 45 43
159 159 157 163 160 158 156 155 153 152 150 149 147 144 138 132 127 124 121 118 115 113 110 106 103 100 98 95 91 86 78 59 68 72 63 56 49 47 49 45 40 39 37
159 160 160 164 161 160 159 157 155 154 152 151 149 146 141 136 131 128 126 123 120 117 114 111 107 104 101 98 94 87 76 49 83 73 62 57 42 41 43 37 33 32 31
161 163 163 166 165 162 160 159 158 158 156 154 151 147 142 140 139 136 132 129 124 120 117 114 110 107 103 100 96 90 79 20 70 70 60 49 30 35 39 34 30 29 28
166 169 169 170 168 167 164 161 160 160 158 155 150 143 141 143 143 139 139 132 128 125 123 118 113 110 103 97 96 94 98 233 77 78 60 44 20 27 34 34 32 30 29
174 176 177 173 171 170 167 161 162 161 159 155 150 141 150 157 150 150 137 136 133 130 125 118 114 110 113 108 98 105 206 83 82 61 54 23 9 20 29 34 35 33 33
180 181 181 179 175 172 167 166 170 168 165 170 164 162 169 160 152 147 130 138 134 130 127 117 118 131 158 130 126 189 127 88 84 72 56 13 8 16 24 33 36 35 38
181 180 182 181 179 175 170 172 172 171 170 176 172 171 168 160 156 161 156 153 152 156 150 139 161 150 141 109 123 111 70 67 62 70 64 22 7 13 27 36 39 43 43
183 184 183 182 181 180 177 176 175 173 174 176 177 176 172 168 171 169 170 165 165 166 159 166 158 142 143 141 139 121 114 82 56 47 63 31 13 19 30 41 46 44 44
186 186 186 185 184 183 182 180 181 179 178 178 178 182 179 174 177 174 174 173 176 168 172 174 173 157 158 145 139 157 98 93 71 63 89 59 28 31 39 44 42 40 43
191 189 186 188 187 185 186 184 185 183 181 181 181 185 184 182 180 181 178 179 179 178 177 182 176 169 162 156 147 136 119 123 104 92 80 98 66 43 41 41 40 38 37
193 190 188 188 188 188 190 189 186 186 184 186 185 187 188 188 185 184 184 183 182 180 180 184 171 176 163 161 166 141 128 72 141 123 114 90 100 76 53 40 37 34 30
194 192 190 188 191 191 191 191 188 188 188 190 189 189 192 192 190 188 187 188 183 180 185 184 183 183 180 182 174 150 170 165 183 134 155 151 112 105 84 53 37 30 24
197 193 191 191 193 193 192 191 191 190 192 192 191 191 193 194 193 192 192 189 183 185 190 184 193 191 184 178 167 163 186 193 167 188 178 159 134 114 82 90 62 39 23
198 194 193 193 194 192 190 192 191 194 196 196 195 195 194 195 195 195 194 193 187 189 190 190 186 186 191 173 160 172 184 191 201 199 189 178 168 160 168 138 142 83 41
198 196 194 193 193 189 189 191 193 196 196 197 198 198 197 197 196 196 193 194 195 196 194 192 185 181 184 179 185 188 184 191 202 197 206 202 183 185 199 215 248 274 98
198 197 196 196 193 192 194 194 197 197 197 196 195 201 201 199 197 197 197 195 195 198 196 193 190 188 180 193 213 212 206 191 190 203 207 214 211 201 209 222 228 240 269
200 198 197 197 195 196 195 192 190 191 191 193 198 201 203 201 199 197 200 198 197 199 199 196 194 194 190 191 217 227 236 231 166 182 200 213 214 218 219 218 230 233 240
202 199 199 198 197 196 193 193 189 192 195 200 198 198 198 201 201 200 201 201 199 201 202 199 198 199 193 188 195 229 256 284 237 201 193 207 219 230 230 223 227 226 231
202 198 199 199 199 197 195 196 196 200 204 199 196 197 196 197 201 201 201 201 202 202 203 198 195 198 200 199 189 187 204 220 241 247 238 209 215 222 228 235 232 229 229
199 196 197 198 199 197 197 198 200 203 202 197 195 194 194 194 197 200 201 202 202 201 201 198 196 199 202 203 198 192 191 196 208 220 241 241 237 218 226 233 233 229 231